VALLADOLID(MIL/CIV) current weather conditions

sailwx.info

Wind from 090 at 13 knots

Air temperature 3.0° C
Visibility: greater than 5.4 NM
Dewpoint -1.0° C

Last reported at 2017-Jan-20 18:30 UTC.
Time now 2017-Jan-20 20:09 UTC

Location: N 41°43' W 004°51'.
View on Google Maps.

See reports from other nearby stations

  
Tides and Currents Weather Stations Pressure Air Temp Water Temp Dewpoint Dewpoint Depression Visibility Wind Speed Wind Dir Waves Ship Positions
date/time (UTC)wind fromknots sea level pressurealtimeterstation pressurevisibilityair tempwater tempwave heightnotes
2017-Jan-20 19:30 080 12 5.4 1.0
2017-Jan-20 19:00 090 13 5.4 2.0
2017-Jan-20 18:30 090 13 5.4 3.0
2017-Jan-20 18:00 080 15 5.4 3.0
2017-Jan-20 17:30 070 9 5.4 4.0
2017-Jan-20 17:00 070 13 5.4 5.0
2017-Jan-20 16:30 080 13 5.4 6.0
2017-Jan-20 16:00 090 15 5.4 7.0
2017-Jan-20 15:30 090 15 5.4 7.0
2017-Jan-20 15:00 100 14 5.4 7.0
2017-Jan-20 14:30 090 13 5.4 7.0
2017-Jan-20 14:00 080 11 5.4 6.0
2017-Jan-20 13:30 080 12 5.4 5.0
2017-Jan-20 13:00 100 13 5.4 5.0
2017-Jan-20 12:30 080 11 5.4 5.0
2017-Jan-20 12:00 080 13 5.4 5.0
2017-Jan-20 11:30 070 14 5.4 5.0
2017-Jan-20 11:00 080 14 5.4 4.0
2017-Jan-20 10:30 070 14 5.4 3.0
2017-Jan-20 10:00 070 13 5.4 2.0
2017-Jan-20 09:30 060 12 5.4 1.0
2017-Jan-20 09:00 060 9 5.4-0.0
2017-Jan-20 08:30 050 8 5.4-1.0
2017-Jan-20 08:00 040 9 5.4-1.0
2017-Jan-20 07:30 060 9 5.4-1.0
2017-Jan-20 07:00 050 9 5.4-2.0
2017-Jan-20 06:30 060 11 5.4-2.0
2017-Jan-20 06:00 060 9 5.4-2.0
2017-Jan-19 20:30 060 12 5.4-2.0
2017-Jan-19 20:00 060 11 5.4-2.0
2017-Jan-19 19:30 050 13 5.4-1.0
2017-Jan-19 19:00 060 11 5.4-1.0
2017-Jan-19 18:30 050 9 5.4-1.0
2017-Jan-19 18:00 060 7 5.4-1.0
2017-Jan-19 17:30 060 7 5.4-0.0
2017-Jan-19 17:00 050 6 5.4 3.0
2017-Jan-19 16:30 060 8 5.4 4.0
2017-Jan-19 16:00 060 8 5.4 5.0
2017-Jan-19 15:30 060 7 5.4 5.0
2017-Jan-19 15:00 070 7 5.4 5.0
2017-Jan-19 14:30 070 8 5.4 5.0
2017-Jan-19 14:00 090 7 5.4 4.0
2017-Jan-19 13:30 080 8 5.4 4.0
2017-Jan-19 13:00 070 9 5.4 3.0
2017-Jan-19 12:30 080 7 5.4 2.0
2017-Jan-19 12:00 070 7 5.4 2.0
2017-Jan-19 11:30 060 9 5.4-0.0
2017-Jan-19 11:00 080 9 5.4-1.0
2017-Jan-19 10:30 080 11 5.4-1.0
2017-Jan-19 10:00 070 9 5.4-2.0
2017-Jan-19 09:30 080 9 5.4-3.0
2017-Jan-19 09:00 080 6 5.4-4.0
2017-Jan-19 08:30 050 4 5.4-6.0
2017-Jan-19 08:00 5.4-7.0
2017-Jan-19 07:30 5.4-7.0
2017-Jan-19 07:00 090 7 5.4-6.0
2017-Jan-19 06:30 080 7 5.4-6.0
2017-Jan-19 06:00 070 7 5.4-6.0
2017-Jan-18 20:30 060 7 5.4-3.0
2017-Jan-18 20:00 060 12 5.4-2.0